Printer-friendly version

IAU Minor Planet Center

Minor Planet Center

MPEC 2002-V06 : S/2001 J 2, 2001 J 3

The following Minor Planet Electronic Circular may be linked-to from your own Web pages, but must not otherwise be redistributed electronically.


Read MPEC 2002-V05 Read MPEC 2002-V07


M.P.E.C. 2002-V06                                Issued 2002 Nov. 1, 18:39 UT

     The Minor Planet Electronic Circulars contain information on unusual
         minor planets and routine data on comets.  They are published
   on behalf of Commission 20 of the International Astronomical Union by the
          Minor Planet Center, Smithsonian Astrophysical Observatory,
                          Cambridge, MA 02138, U.S.A.

             Prepared using the Tamkin Foundation Computer Network

                              MPC@CFA.HARVARD.EDU
          URL http://cfa-www.harvard.edu/iau/mpc.html  ISSN 1523-6714

                             S/2001 J 2, 2001 J 3

                           Revision to MPEC 2002-J54

Observations:
    SK01J020  C2002 10 31.56823 09 09 22.19 +16 02 49.1          23.3 R      568
    SK01J020  C2002 10 31.60270 09 09 23.02 +16 02 45.0          22.8 R      568
    SK01J020  C2002 11 01.59385 09 09 47.77 +16 00 43.7          23.0 R      568
    SK01J020  C2002 11 01.60212 09 09 47.94 +16 00 42.9                      568
    SK01J030  C2002 10 31.57662 09 11 19.27 +16 28 15.6          23   R      568
    SK01J030  C2002 10 31.61120 09 11 20.17 +16 28 13.3                      568
    SK01J030  C2002 11 01.61127 09 11 45.79 +16 26 58.4                      568
    SK01J030  C2002 11 01.61953 09 11 46.00 +16 26 58.1                      568

Observer details:
568 Mauna Kea.  Observer S. S. Sheppard.  2.2-m University of Hawaii
    reflector + CCD.

Orbital elements:
S/2001 J 2
Epoch 2002 Nov. 22.0 TT = JDT 2452600.5                 MPC
M 150.91889              (2000.0)            P               Q
n   0.58870105     Peri.   86.27860     -0.79462567     +0.37830184
a   0.1388382      Node   244.59085     +0.07173664     +0.83514810
e   0.2832751      Incl.  148.28637     +0.60284649     +0.39926854
P   1.67           H   15.7           P/d   611.52
Residuals in seconds of arc
011211 568  0.1-  0.0     020108 568  0.3+  0.0     020210 568  0.1-  0.0
011211 568  0.1-  0.1+    020108 568  0.2-  0.1+    021031 568  0.4+  0.2-
011211 568  0.2+  0.4-    020115 568  0.4+  0.0     021031 568  0.0   0.1-
011218 568  0.1-  0.1+    020115 568  0.3+  0.2-    021101 568  0.0   0.0
011218 568  0.2-  0.2+    020210 568  0.1-  0.1-    021101 568  0.4-  0.2+

S/2001 J 3
Epoch 2002 Nov. 22.0 TT = JDT 2452600.5                 MPC
M  25.58269              (2000.0)            P               Q
n   0.57707291     Peri.  304.58490     +0.71090919     +0.69442145
a   0.1406971      Node   347.22309     +0.68619776     -0.71956825
e   0.2479097      Incl.  149.78466     -0.15408037     -0.00061998
P   1.71           H   15.4           P/d   623.84
Residuals in seconds of arc
011209 568  0.3+  0.1+    020108 568  0.5+  0.0     020312 568  0.1+  0.1+
011209 568  0.0   0.2+    020115 568  0.0   0.1-    021031 568  0.4-  0.2-
011209 568  0.2+  0.1+    020115 568  0.4-  0.0     021031 568  0.0   0.0
011217 568  0.3-  0.2-    020210 568  0.2-  0.0     021101 568  0.2+  0.0
011217 568  0.7-  0.0     020210 568  0.0   0.2-    021101 568  0.2+  0.2+
020108 568  0.6+  0.0     020312 568  0.0   0.1+

Ephemerides:
    S/2001 J 2
Date    TT    R. A. (2000) Decl.     Delta     r_J   dR.A. ("/m)  dDecl.m1"/')
2002 10 23    09 05.39   +16 21.9    5.378    0.170  5446-/6.31-  1360-/ 22.7-
2002 11 02    09 09.96   +15 59.9    5.214    0.172  5363-/6.20-  1603-/ 26.7-
2002 11 12    09 13.50   +15 42.2    5.049    0.174  5252-/6.06-  1861-/ 31.0-
2002 11 22    09 15.91   +15 29.6    4.885    0.175  5113-/5.90-  2130-/ 35.5-
2002 12 02    09 17.12   +15 22.7    4.728    0.176  4949-/5.70-  2405-/ 40.1-
2002 12 12    09 17.05   +15 21.8    4.583    0.177  4762-/5.49-  2678-/ 44.6-
2002 12 22    09 15.72   +15 27.2    4.453    0.178  4550-/5.24-  2940-/ 49.0-
2003 01 01    09 13.19   +15 38.3    4.345    0.178  4312-/4.98-  3180-/ 53.0-
2003 01 11    09 09.62   +15 54.5    4.262    0.178  4045-/4.67-  3388-/ 56.5-
2003 01 21    09 05.26   +16 14.4    4.207    0.178  3746-/4.33-  3556-/ 59.3-
2003 01 31    09 00.44   +16 36.4    4.183    0.178  3410-/3.95-  3675-/ 61.3-
2003 02 10    08 55.54   +16 58.8    4.191    0.177  3036-/3.53-  3743-/ 62.4-
2003 02 20    08 50.97   +17 19.9    4.231    0.176  2624-/3.05-  3759-/ 62.7-
2003 03 02    08 47.07   +17 38.3    4.300    0.175  2177-/2.54-  3729-/ 62.2-
2003 03 12    08 44.15   +17 53.0    4.396    0.174  1700-/1.99-  3659-/ 61.0-
2003 03 22    08 42.41   +18 03.3    4.514    0.172  1203-/1.41-  3559-/ 59.3-
2003 04 01    08 41.94   +18 08.9    4.650    0.170   693-/0.81-  3437-/ 57.3-
2003 04 11    08 42.78   +18 09.6    4.799    0.168   179-/0.21-  3302-/ 55.0-
2003 04 21    08 44.87   +18 05.6    4.957    0.166   331+/0.39+  3160-/ 52.7-
2003 05 01    08 48.13   +17 56.9    5.120    0.163   828+/0.97+  3016-/ 50.3-
2003 05 11    08 52.44   +17 43.8    5.284    0.160  1306+/1.52+  2873-/ 47.9-
2003 05 21    08 57.68   +17 26.5    5.446    0.157  1759+/2.05+  2732-/ 45.5-
2003 05 31    09 03.71   +17 05.3    5.602    0.154  2180+/2.53+  2593-/ 43.2-
2003 06 10    09 10.41   +16 40.4    5.750    0.150  2563+/2.97+  2454-/ 40.9-
2003 06 20    09 17.65   +16 12.3    5.886    0.147  2904+/3.36+  2311-/ 38.5-
2003 06 30    09 25.32   +15 41.1    6.010    0.143  3198+/3.69+  2163-/ 36.1-
2003 07 10    09 33.31   +15 07.3    6.120    0.139  3438+/3.96+  2004-/ 33.4-

    S/2001 J 3
Date    TT    R. A. (2000) Decl.     Delta     r_J   dR.A. ("/m)  dDecl.m1"/')
2002 10 23    09 07.29   +16 40.8    5.429    0.106  3800-/4.41-   231-/  3.9-
2002 11 02    09 11.92   +16 26.5    5.258    0.108  3655-/4.23-     8-/  0.1-
2002 11 12    09 15.62   +16 16.9    5.085    0.109  3401-/3.94-   220+/  3.7+
2002 11 22    09 18.28   +16 12.6    4.916    0.112  3049-/3.53-   451+/  7.5+
2002 12 02    09 19.79   +16 14.2    4.755    0.114  2615-/3.03-   685+/ 11.4+
2002 12 12    09 20.09   +16 21.8    4.605    0.117  2116-/2.45-   923+/ 15.4+
2002 12 22    09 19.14   +16 35.5    4.473    0.120  1571-/1.82-  1163+/ 19.4+
2003 01 01    09 17.01   +16 54.7    4.363    0.124   996-/1.16-  1403+/ 23.4+
2003 01 11    09 13.81   +17 18.2    4.279    0.127   410-/0.48-  1637+/ 27.3+
2003 01 21    09 09.79   +17 44.6    4.224    0.131   173+/0.20+  1858+/ 31.0+
2003 01 31    09 05.26   +18 11.9    4.201    0.135   743+/0.87+  2058+/ 34.3+
2003 02 10    09 00.58   +18 38.3    4.210    0.138  1291+/1.51+  2228+/ 37.1+
2003 02 20    08 56.15   +19 01.9    4.252    0.142  1816+/2.13+  2359+/ 39.3+
2003 03 02    08 52.33   +19 21.3    4.323    0.145  2314+/2.73+  2447+/ 40.8+
2003 03 12    08 49.42   +19 35.5    4.422    0.148  2786+/3.29+  2489+/ 41.5+
2003 03 22    08 47.63   +19 44.1    4.543    0.152  3231+/3.81+  2486+/ 41.4+
2003 04 01    08 47.06   +19 46.9    4.682    0.155  3646+/4.31+  2443+/ 40.7+
2003 04 11    08 47.75   +19 44.1    4.836    0.157  4032+/4.76+  2363+/ 39.4+
2003 04 21    08 49.65   +19 35.8    4.998    0.160  4383+/5.17+  2254+/ 37.6+
2003 05 01    08 52.69   +19 22.5    5.166    0.163  4699+/5.53+  2120+/ 35.3+
2003 05 11    08 56.77   +19 04.5    5.334    0.165  4975+/5.85+  1968+/ 32.8+
2003 05 21    09 01.74   +18 42.1    5.500    0.167  5210+/6.11+  1803+/ 30.1+
2003 05 31    09 07.50   +18 15.7    5.660    0.169  5402+/6.32+  1631+/ 27.2+
2003 06 10    09 13.91   +17 45.6    5.810    0.170  5548+/6.47+  1457+/ 24.3+
2003 06 20    09 20.86   +17 12.2    5.950    0.172  5649+/6.57+  1285+/ 21.4+
2003 06 30    09 28.24   +16 35.8    6.075    0.173  5703+/6.61+  1118+/ 18.6+
2003 07 10    09 35.95   +15 56.7    6.186    0.174  5711+/6.60+   960+/ 16.0+

Brian G. Marsden             (C) Copyright 2002 MPC           M.P.E.C. 2002-V06

Read MPEC 2002-V05 Read MPEC 2002-V07


Our Web policy. Index to the CBAT/MPC/ICQ pages.


Valid HTML 4.01!